sat.trackr.live / text

‹ back to catalog

STARLINK-30338

NORAD 57718 · 2023-129W

PAYLOAD ACTIVE UNKNOWN

§ Identity

Operator
Country
US
Launch date
2023-08-27
Launch site
AFETR
Launch vehicle
Mass (kg)
RCS (m²)

Purposes: comms

External: N2YO · Heavens-Above · Gunter

§ Orbital elements

Epoch: 2026-09-20T21:30:59.872320Z

Period
94.27 min
Inclination
43.0004°
Eccentricity
0.0001204
Mean motion
15.27575445 rev/d
Perigee alt
482.2 km
Apogee alt
483.9 km
Semi-major
6,861.2 km
B*
3.1933e-5
RAAN
95.7589°
Arg perigee
262.8008°
Mean anomaly
97.2707°
Rev number
17,053

§ Raw data

STARLINK-303381 57718U 23129W   26263.89652630  .00000617  00000+0  31933-4 0  99992 57718  43.0004  95.7589 0001204 262.8008  97.2707 15.27575445170530

JSON: /api/v1/satellites/57718 · /tle

For live sub-satellite position, see the globe view (requires WebGL).

§ Visibility from observer

Set your observer location to see the next 7 days of passes ≥ 10°. The values pass through the URL so the page stays shareable.

No JS? Fill the form by hand. The geolocation button needs JavaScript.